Location: Ernsee
(50.8780°N, 12.0389°E)
Time: 09:26:21
(UTC+00:00)

Cosmos 2263 Rocket - Pass Details

Date: 20 January 2020
Orbit: 823 x 849 km, 71.0° (Epoch: 16 February)

Event Time Altitude Azimuth Distance (km) Brightness Sun altitude
Exits shadow 05:48:25 10° 321° (NW) 2,475 4.1 -11.6°
Reaches altitude 10° 05:48:28 10° 321° (NW) 2,460 4.1 -11.6°
Maximum altitude 05:53:49 46° 250° (WSW) 1,115 2.5 -10.8°
Drops below altitude 10° 05:59:11 10° 178° (S) 2,460 4.9 -10.0°
Sets 06:01:43 0° 173° (S) 3,394 5.7 -9.7°
